Weather in Krasnoperekopsk

Russia / Republic of Crimea     45°57′13″N   33°47′31″E
temp.,
°C
wind,
m/s
gust,
m/s
humid.,
%
clouds,
%
prec.,
mm/h
press.,
hPa
HPBL,
m
1 march, mon
mon100:00+3nw5688100 0.1 1024352
03:00+3wnw4582100 0.1 1024471
06:00+2nw3478100 0.0 1024246
09:00+2nnw3379100 0.0 1025234
12:00+4nne236833 0.0 1026661
15:00+5n236421 0.0 1026584
18:00+5n346787 0.0 1028491
21:00+4nne457394 0.1 1029311
2 march, tue
tue200:00+3nne5676100 0.1 1030317
03:00+2n457596 0.1 1031246
06:00+2nnw337385 0.0 1030148
09:00+3wnw236859 0.0 1031230
12:00+4w566496 0.0 1030972
15:00+4wsw897064 0.0 1028617
18:00+4wsw9127433 0.0 1025662
21:00+4wsw10147848 0.0 1024543
3 march, wed
wed300:00+5wsw1015820 0.0 1022432
03:00+5w8138333 0.0 1021334
06:00+4nw6118223 0.0 1021322
09:00+4nnw7127962 0.0 1023762
12:00+5n686332 0.0 1025788
15:00+7n575516 0.0 1026576
18:00+6n57570 0.0 1026241
21:00+5nne22680 0.0 102824
4 march, thu
thu400:00+4se22720 0.0 102825
03:00+3s33720 0.0 102769
06:00+3ssw45730 0.0 1026100
09:00+4ssw46690 0.0 1026206
12:00+6wsw57610 0.0 1024514
15:00+6w79690 0.0 1022407
18:00+6wsw610670 0.0 1020402
21:00+5sw612770 0.0 1019467
5 march, fri
fri500:00+4sw613820 0.0 1018510
03:00+4ssw714820 0.0 1017468
06:00+4ssw713860 0.0 1016417
09:00+5sw713820 0.0 1016430
12:00+8sw710720 0.0 1015363
15:00+10sw710670 0.0 1014438
18:00+9ssw711730 0.0 1013338
21:00+7ssw814840 0.0 1013333